Location: Bern�tre
(50.1974°N, 2.0915°E)
Time: 05:28:53
(UTC+00:00)

CRYOSAT 2 - Pass Details

Date: 18 September 2020
Orbit: 714 x 725 km, 92.0° (Epoch: 22 October)

Event Time Altitude Azimuth Distance (km) Brightness Sun altitude
Rises 20:49:49 0° 3° (N) 3,153 8.2 -26.2°
Reaches altitude 10° 20:52:07 10° 2° (N) 2,226 7.3 -26.5°
Enters shadow 20:56:55 78° 300° (WNW) 744 4.4 -27.1°
